STARLINK-33622 (63066 NORAD) Tracking and Keplerian Element Data

This shows tracking and keplerian element data for the satellite.

Feedback or suggestion? Click here.




ElementValue
Catalog63066
NameSTARLINK-33622
Epoch Orbit4756
Epoch Day354.11975757
Epoch Year2025
RAAN236.1786
Inclination43.0003
Eccentricity0.0002616
Argument of Perigee272.2913
Mean Anonmoly87.7639
Mean Motion15.27625574
Decay Rate0.00021956
L11 63066U 25035Q 25354.11975757 .00021956 00000+0 80385-3 0 9996
L22 63066 43.0003 236.1786 0002616 272.2913 87.7639 15.27625574 47563



Live tracking and technical data element details for STARLINK-33622 (NORAD 63066). STARLINK-33622 can be tracked NOW for your location showing map with azimuth and elevation plus other details from your city location.







IsCatalogInMostPopularTable: catalog: 63066, numindb: 2
Update: records affected: 1



GetName: 63066 STARLINK-33622

Hit Count: updated at: Sun, 08 Feb 2026 17:15:03 GMT